This is the latest recevied weather packets stored in our database for station/object W8AN. If no packets are shown the sender has not sent any weather packets the latest 10 day(s).
| Time | Temp. | Humidity | Pressure | Rain* | Wind** | Luminosity | Snow |
|---|---|---|---|---|---|---|---|
| 1777963506 | 17.22° C | 65% | 4256.8 hPa | 0 mm | - | 0 W/m² | - |
| 1777963204 | 17.22° C | 65% | 4257.6 hPa | 0 mm | - | 0 W/m² | - |
| 1777962901 | 17.78° C | 64% | 4257.6 hPa | 0 mm | - | 0 W/m² | - |
| 1777962597 | 17.78° C | 65% | 4257.7 hPa | 0 mm | - | 0 W/m² | - |
| 1777962294 | 17.78° C | 65% | 4257.7 hPa | 0 mm | - | 0 W/m² | - |
| 1777961991 | 17.78° C | 65% | 4257.4 hPa | 0 mm | - | 0 W/m² | - |
| 1777961689 | 17.78° C | 66% | 4257.6 hPa | 0 mm | - | 0 W/m² | - |
| 1777961386 | 17.78° C | 64% | 4257.6 hPa | 0 mm | - | 0 W/m² | - |
| 1777961083 | 17.78° C | 64% | 4257.6 hPa | 0 mm | - | 0 W/m² | - |
| 1777960780 | 17.78° C | 65% | 4257.8 hPa | 0 mm | - | 0 W/m² | - |
| 1777960476 | 18.33° C | 64% | 4257.9 hPa | 0 mm | - | 0 W/m² | - |
| 1777960172 | 18.33° C | 64% | 4257.9 hPa | 0 mm | - | 0 W/m² | - |
| 1777959870 | 18.89° C | 62% | 4258.1 hPa | 0 mm | - | 0 W/m² | - |
| 1777959568 | 18.89° C | 61% | 4258.1 hPa | 0 mm | - | 0 W/m² | - |
| 1777959265 | 19.44° C | 59% | 4258 hPa | 0 mm | - | 0 W/m² | - |
| 1777958962 | 20° C | 57% | 4257.9 hPa | 0 mm | - | 0 W/m² | - |
| 1777958658 | 19.44° C | 59% | 4257.8 hPa | 0 mm | - | 0 W/m² | - |
| 1777958356 | 19.44° C | 58% | 4257.9 hPa | 0 mm | - | 0 W/m² | - |
| 1777958053 | 20° C | 58% | 4256.9 hPa | 0 mm | - | 0 W/m² | - |
| 1777957751 | 20° C | 57% | 4256.5 hPa | 0 mm | - | 0 W/m² | - |
| 1777957449 | 20° C | 57% | 4256.8 hPa | 0 mm | - | 0 W/m² | - |
| 1777957145 | 20° C | 57% | 4256.4 hPa | 0 mm | - | 0 W/m² | - |
| 1777956842 | 19.44° C | 57% | 4256.4 hPa | 0 mm | - | 0 W/m² | - |
| 1777956539 | 19.44° C | 58% | 4256.4 hPa | 0 mm | - | 0 W/m² | - |
| 1777956236 | 19.44° C | 58% | 4256.8 hPa | 0 mm | - | 0 W/m² | - |
* Rain latest hour (hover to see other rain measurements)
** Current wind speed in m/s (hover to see current wind gust speed)